Regional Weather Roundup
Issued by NWS

Home | Current Version | Previous Version | Graphics & Text | Print | Product List | Glossary On
Versions: 1 2 3 4 5 6 7 8 9 10 11 12 13 14 15 16 17 18 19 20 21 22 23 24 25 26 27
000
ASUS45 KCYS 220710
RWRWY

WYOMING REGIONAL WEATHER ROUNDUP
NATIONAL WEATHER SERVICE CHEYENNE WY
1200 AM MST SUN JAN 22 2017

NOTE:  "FAIR" INDICATES FEW OR NO CLOUDS BELOW 12,000 FEET
WITH NO SIGNIFICANT WEATHER AND/OR OBSTRUCTIONS TO VISIBILITY.

WYZ001-220800-
YELLOWSTONE NATIONAL PARK

CITY           SKY/WX    TMP DP  RH WIND       PRES   REMARKS
LK YELLOWSTONE   N/A     17  15  92 CALM      29.77R
W YELLOWSTONE  NOT AVBL

$$
WYZ002>013-054>058-071-098>099-220800-
NORTHERN WYOMING

CITY           SKY/WX    TMP DP  RH WIND       PRES   REMARKS
JACKSON        CLOUDY    23  21  93 S7        29.81R WCI  15
CODY           FAIR      24  17  74 CALM      29.73R
GREYBULL       CLOUDY    15  11  83 SE3       29.77R
WORLAND        CLOUDY    16  14  92 SW3       29.76R
SHERIDAN       CLOUDY    24  18  77 S7        29.70R WCI  16
BUFFALO        MOCLDY    27  14  58 NW6       29.68R WCI  20
GILLETTE       FAIR      25  22  88 CALM      29.68R
HULETT         FAIR      21  18  86 S9        29.68R WCI  11
NEWCASTLE      FAIR      21  21 100 N6        29.69R WCI  14

$$
WYZ014>020-022>026-101>103-220800-
CENTRAL WYOMING

CITY           SKY/WX    TMP DP  RH WIND       PRES   REMARKS
BIG PINEY      FAIR      12  10  92 SW7       29.82R WCI   1
PINEDALE       FAIR       3   1  92 W6        29.82R WCI  -8
DUBOIS         NOT AVBL
LANDER         FAIR      19  15  84 S3        29.73R
RIVERTON       FAIR     N/A N/A N/A CALM      29.74R
CASPER         MOCLDY    26  19  74 SW12      29.72R WCI  16
DOUGLAS        FAIR      23  16  74 NW6       29.71R WCI  16

$$
WYZ021-027>030-104>119-220800-
SOUTHERN WYOMING

CITY           SKY/WX    TMP DP  RH WIND       PRES   REMARKS
EVANSTON       CLOUDY    17  13  84 SW7       29.88R WCI   8
ROCK SPRINGS   FAIR      18  14  84 SW18      29.83R WCI   2
RAWLINS        CLOUDY    23  17  78 W17       29.76R WCI   9
LARAMIE        CLOUDY    13  11  92 S7        29.70R WCI   3
CHEYENNE       MOCLDY    29  19  66 NW7       29.68R WCI  22
TORRINGTON     FAIR      27  23  85 W6        29.69R WCI  20

$$




USA.gov is the U.S. government's official web portal to all federal, state and local government web resources and services.